Regional Weather Roundup
Issued by NWS Upton, NY

Current Version | Previous Version | Text Only | Print | Product List | Glossary On
Versions: 1 2 3 4 5 6 7 8 9 10 11 12 13 14 15 16 17 18 19 20 21 22 23 24 25 26 27 28 29 30 31 32 33 34 35 36 37 38 39 40 41 42 43 44 45 46 47 48 49 50
000
ASUS41 KOKX 270704
RWROKX

REGIONAL WEATHER ROUNDUP
NATIONAL WEATHER SERVICE NEW YORK NY
300 AM EDT FRI MAY 27 2016

NOTE: "FAIR" INDICATES FEW OR NO CLOUDS BELOW 12,000 FEET WITH NO
SIGNIFICANT WEATHER AND/OR OBSTRUCTIONS TO VISIBILITY.

NYZ071-072-176-178-NJZ106-104-270800-
NEW YORK CITY METRO AREA


CITY           SKY/WX    TMP DP  RH WIND       PRES   REMARKS
CENTRAL PARK   CLEAR     74  54  49 VRB3      30.08S
LAGUARDIA APRT MOCLDY    71  64  78 CALM      30.05S
KENNEDY INTL   MOCLDY    64  60  87 CALM      30.07S
NEWARK/LIBERTY MOCLDY    73  56  54 CALM      30.05S
BRNX BOT. GARD   N/A     66  57  72 E1        30.07S
TETERBORO      MOCLDY    73  53  49 CALM      30.04F
$$

NYZ177-179-078>081-270800-
LONG ISLAND NEW YORK

CITY           SKY/WX    TMP DP  RH WIND       PRES   REMARKS
FARMINGDALE    CLEAR     64  60  87 CALM      30.07S
ISLIP          CLEAR     63  59  87 S5        30.07R
SHIRLEY        PTCLDY    62  58  86 SE3       30.08S
RIVERHEAD        N/A     61  59  94 CALM      30.07S
WESTHAMPTON    CLOUDY    56  55  97 SE3       30.10R FOG
EAST HAMPTON   FAIR      56  55  95 CALM      30.09R
MONTAUK POINT    N/A     59  57  93 S5        30.11R
$$

NYZ052-065-067-270800-
HUDSON VALLEY

CITY           SKY/WX    TMP DP  RH WIND       PRES   REMARKS
WHITE PLAINS   CLOUDY    63  57  81 CALM      30.06S
NEWBURGH       NOT AVBL
MONTGOMERY     CLOUDY    66  59  78 CALM      30.04F
POUGHKEEPSIE   CLOUDY    67  55  65 CALM      30.03F
ALBANY         CLOUDY    74  50  42 S8        30.02S
$$

NJZ001-105-106-008-010-013-015-019>022-104-270800-
NEW JERSEY

CITY           SKY/WX    TMP DP  RH WIND       PRES   REMARKS
NEWARK/LIBERTY MOCLDY    73  56  54 CALM      30.05S
TETERBORO      MOCLDY    73  53  49 CALM      30.04F
CALDWELL       CLOUDY    69  57  65 CALM      30.05F
MORRISTOWN     CLOUDY    64  55  72 CALM      30.06S
SOMERVILLE     PTCLDY    65  59  81 CALM      30.04S
SUSSEX         CLOUDY    65  59  81 CALM      30.05F
ANDOVER          N/A     67  60  78 CALM      30.07S
TRENTON        CLOUDY    70  59  68 CALM      30.05S
MILLVILLE      PTCLDY    69  62  78 CALM      30.07S
ATLANTIC CITY  PTCLDY    68  62  81 S5        30.08R
WRIGHTSTOWN    CLOUDY    69  62  77 SW6       30.04S
TOMS RIVER     PTCLDY    64  57  77 CALM      30.07S
BELMAR         CLOUDY    70  61  73 SW7       30.07S
$$

PAZ047>061-062-071-270800-
EASTERN PENNSYLVANIA

CITY           SKY/WX    TMP DP  RH WIND       PRES   REMARKS
PHILADELPHIA   MOCLDY    71  61  70 S5        30.06S
ALLENTOWN      RAIN      70  66  87 SW3       30.08R FOG
SCRANTON       MOCLDY    70  60  70 S3        30.06R
$$

CTZ002-004>006-009-010-012-RIZ004-006-007-MAZ004-011-015-270800-
SOUTHERN NEW ENGLAND
 IN CT

CITY           SKY/WX    TMP DP  RH WIND       PRES   REMARKS
BRADLEY INTL   CLOUDY    67  53  61 S6        30.05S
HARTFORD       CLOUDY    68  54  60 S5        30.06S
DANBURY        CLOUDY    63  54  72 CALM      30.08S
WTRBRY/OXFORD    N/A     61  52  72 CALM      30.09F
BRIDGEPORT     CLOUDY    65  57  75 NE3       30.07R
MERIDEN        CLEAR     60  55  83 CALM      30.07S
NEW HAVEN      CLOUDY    62  57  83 NE3       30.08R
CHESTER        FAIR      61  55  82 CALM      30.09S
GROTON         CLEAR     56  55  97 CALM      30.09R
WILLIMANTIC    MOCLDY    62  56  80 N3        30.09S

 IN RI

CITY           SKY/WX    TMP DP  RH WIND       PRES   REMARKS
PROVIDENCE     CLEAR     60  55  83 SE3       30.10R
BLOCK ISLAND   PTCLDY    59  56  89 SW12      30.11R
WESTERLY       CLEAR     57  51  80 CALM      30.10S

 IN MA

CITY           SKY/WX    TMP DP  RH WIND       PRES   REMARKS
BOSTON         CLOUDY    60  55  83 CALM      30.10R
WORCESTER      CLOUDY    63  57  81 CALM      30.10F
WESTFIELD      CLOUDY    68  54  60 S3        30.06S
PROVINCETOWN   CLEAR     60  55  83 S9        30.11S
NANTUCKET      FOG       57  55  93 SE6       30.13R VSB 1/4
$$

ANZ330-335-338-340-345-350-353-355-270800-
COASTAL MARINE OBSERVATIONS


STATION/POSITION TIME  SKY/WX   TEMP    WIND        PRES    VSBY  WAVE
                                AIR SEA DIR/SP/G                  HT/PER
                 (UTC)          (F)     (DEG/KT/KT) (MB)    (MI)  (FT/S)
NY HARB ENTRANCE 0650            62 61  210/ 10/ 10 1017.6          2/ 9
20S FIRE ISLAND  0550            62 59  210/ 12/ 14 1017.6          2/ 7
GREAT SOUTH BAY  0600            64 67  240/  2/  6   N/A
23 SSW MONTAUK P 0650            59 57  200/  8/  8 1018.7          2/ 8
15 E BARNEGAT LI 0622               59                N/A           3/ 4
HUDSON CANYON    0550            60 56              1018.8          2/ 6
KINGS POINT      0600            68 58              1017.6
EXECUTION ROCKS  NOT AVBL
CENTRAL LI SOUND 0615            61     120/  6/  6   N/A           1
EASTERN LI SOUND 0600            56 53  140/  4/  4   N/A
ROBBINS REEF     0600            71                 1017.1
$$


>>>>>>>>>>>>>>>>>>>>>>>>>>>> KEY <<<<<<<<<<<<<<<<<<<<<<<<<<<
>                                                          <
>     SKY/WX - SKY CONDITION/PRESENT WEATHER               <
>     TMP    - TEMPERATURE IN FAHRENHEIT                   <
>     DP     - DEWPOINT IN FAHRENHEIT                      <
>     RH     - RELATIVE HUMIDITY IN PERCENT                <
>     WIND   - DIRECTION AND SPEED IN MPH                  <
>     PRES   - MEAN SEA LEVEL PRESSURE IN INCHES OF HG     <
>     WCI    - WIND CHILL INDEX                            <
>     VSB    - VISIBILITY IN MILES                         <
>     HX     - HEAT INDEX                                  <
>     TC     - TEMPERATURE IN CELSIUS                      <
>     VRB    - VARIABLE WIND DIRECTION                     <
>                                                          <
>>>>>>>>>>>>>>>>>>>>>>>>>>>> KEY <<<<<<<<<<<<<<<<<<<<<<<<<<<





USA.gov is the U.S. government's official web portal to all federal, state and local government web resources and services.